This is the latest recevied weather packets stored in our database for station/object CH79EN-13. If no packets are shown the sender has not sent any weather packets the latest 10 day(s).
| Time | Temp. | Humidity | Pressure | Rain* | Wind** | Luminosity | Snow |
|---|---|---|---|---|---|---|---|
| 1788333237 | 16.67° C | 99% | 1027.2 hPa | 0 mm | - | 0 W/m² | - |
| 1788333084 | 16.67° C | 99% | 1027.2 hPa | 0 mm | - | 0 W/m² | - |
| 1788332932 | 17.22° C | 99% | 1027.2 hPa | 0 mm | - | 0 W/m² | - |
| 1788332780 | 17.22° C | 99% | 1027.2 hPa | 0 mm | - | 0 W/m² | - |
| 1788332627 | 17.22° C | 99% | 1027.2 hPa | 0 mm | - | 0 W/m² | - |
| 1788332475 | 17.22° C | 99% | 1027.2 hPa | 0 mm | - | 0 W/m² | - |
| 1788332322 | 17.22° C | 99% | 1027.2 hPa | 0 mm | - | 0 W/m² | - |
| 1788332170 | 16.67° C | 99% | 1027.2 hPa | 0 mm | - | 0 W/m² | - |
| 1788332017 | 16.11° C | 99% | 1027.2 hPa | 0 mm | - | 0 W/m² | - |
| 1788331865 | 15.56° C | 99% | 1027.1 hPa | 0 mm | - | 0 W/m² | - |
| 1788331712 | 15° C | 99% | 1027.1 hPa | 0 mm | - | 0 W/m² | - |
| 1788331560 | 14.44° C | 99% | 1027.1 hPa | 0 mm | - | 0 W/m² | - |
| 1788331407 | 14.44° C | 99% | 1027.2 hPa | 0 mm | - | 0 W/m² | - |
| 1788331255 | 13.89° C | 99% | 1027.2 hPa | 0 mm | - | 0 W/m² | - |
| 1788330949 | 13.33° C | 99% | 1027 hPa | 0 mm | - | 0 W/m² | - |
| 1788330797 | 12.78° C | 99% | 1027.2 hPa | 0 mm | - | 0 W/m² | - |
| 1788330644 | 12.22° C | 99% | 1027.2 hPa | 0 mm | - | 0 W/m² | - |
| 1788330492 | 12.22° C | 99% | 1027.2 hPa | 0 mm | - | 0 W/m² | - |
| 1788330339 | 12.22° C | 99% | 1027.3 hPa | 0 mm | - | 0 W/m² | - |
| 1788330187 | 12.22° C | 99% | 1027.2 hPa | 0 mm | - | 0 W/m² | - |
| 1788330034 | 12.22° C | 99% | 1027.3 hPa | 0 mm | - | 0 W/m² | - |
| 1788330015 | 12.22° C | 99% | 1027.1 hPa | 0 mm | - | 0 W/m² | - |
| 1788329272 | 11.11° C | 99% | 1027.1 hPa | 0 mm | - | 0 W/m² | - |
| 1788329119 | 11.11° C | 99% | 1027.2 hPa | 0 mm | - | 0 W/m² | - |
| 1788328967 | 10.56° C | 99% | 1027.2 hPa | 0 mm | - | 0 W/m² | - |
* Rain since midnight (hover to see other rain measurements)
** Current wind speed in m/s (hover to see current wind gust speed)